Regional Weather Roundup
Issued by NWS

Home | Current Version | Previous Version | Text Only | Print | Product List | Glossary Off
Versions: 1 2 3 4 5 6 7 8 9 10 11 12 13 14 15 16 17 18 19 20 21 22 23 24 25 26 27

000
ASUS45 KSLC 290310
RWRUT

UTAH REGIONAL WEATHER ROUNDUP
NATIONAL WEATHER SERVICE SALT LAKE CITY UT
900 PM MDT SUN MAY 28 2017

UTZ001>011-023>025-290400-

NORTHERN UTAH

CITY           SKY/WX    TMP DP  RH WIND       PRES   REMARKS
BRIGHAM CITY   CLEAR     72  30  21 CALM      30.15S
HILL AFB       CLEAR     65  31  27 NW5       30.17S
LOGAN          CLEAR     70  42  36 SW5       30.16S
OGDEN          CLEAR     65  32  29 N3        30.14F
SALT LAKE CITY CLEAR     70  41  34 N8        30.13S
TOOELE VALLEY  CLEAR     63  45  51 CALM      30.15S
WENDOVER       CLEAR     71  27  19 E6        30.15S
HEBER CITY     CLEAR     61  36  39 CALM      30.18R
WEST JORDAN    CLEAR     64  46  50 NW6       30.16S

$$

UTZ011>015-024>027-290400-

CENTRAL/NORTHEAST UTAH

CITY           SKY/WX    TMP DP  RH WIND       PRES   REMARKS
PROVO AIRPORT  CLEAR     66  52  60 NW10      30.14S
MOAB/CANYONLAN CLEAR     71  14  11 W3        30.09S
DELTA          CLEAR     70  10  10 CALM      30.14S
PRICE          PTCLDY    64  29  26 NE7       30.18S
ROOSEVELT      PTCLDY    63  36  36 N5        30.19R
VERNAL         CLEAR     66  32  28 NW5       30.17S

$$

UTZ013>016-019>022-027-290400-

SOUTHERN UTAH

CITY           SKY/WX    TMP DP  RH WIND       PRES   REMARKS
BRYCE CANYON   CLOUDY    64  22  20 NE8G17    30.28S
CEDAR CITY     CLEAR     64  21  19 NE7       30.15R
MILFORD        CLEAR     63  17  17 N8        30.13S
ST GEORGE      CLEAR     86  23  10 NW5       29.95S
HANKSVILLE     CLEAR     68  16  13 NE6       30.11S
BLANDING       CLEAR     60  16  18 N8        30.24R

$$

REGIONAL REPORTS     COLORADO/ARIZONA

CITY           SKY/WX    TMP DP  RH WIND       PRES   REMARKS
CRAIG, CO      CLEAR     52  37  56 S3        30.24S
GRAND JUNCTION CLEAR     64  25  22 CALM      30.11S
RIFLE, CO      CLEAR     66  27  23 CALM      30.17R
MONTROSE, CO   CLEAR     65  18  16 W6        30.19R
CORTEZ, CO     CLEAR     57  31  37 S6        30.18R
COLORADO CITY    N/A     75  25  15 N7        30.11S
PAGE, AZ       CLEAR     77  17  10 NE5       30.06S
GRAND CANYON   PTCLDY    60  25  26 CALM      30.21S
KINGMAN, AZ    CLEAR     81  18   9 W8        29.98R
FLAGSTAFF, AZ  MOCLDY    63  21  20 NE6       30.21R

$$

REGIONAL REPORTS    NEVADA/IDAHO/WYOMING

CITY           SKY/WX    TMP DP  RH WIND       PRES   REMARKS
LAS VEGAS, NV  CLEAR     91   8   4 NE6       29.89S
ELY, NY        CLEAR     64  19  17 NW5       30.19S
ELKO, NV       CLEAR     70  29  21 SE6       30.15S
POCATELLO, ID  CLEAR     67  39  35 CALM      30.18S
BURLEY, ID     CLEAR     66  44  45 N3        30.14S
FORT BRIDGER,    N/A     57  28  33 N6        30.31S
EVANSTON, WY   CLEAR     56  31  38 N8        30.29R
ROCK SPRINGS,  CLEAR     56  25  30 NW6       30.26S
KEMMERER, WY     N/A     54  28  37 W5        30.30S

$$




USA.gov is the U.S. government's official web portal to all federal, state and local government web resources and services.